Time,TemperatureF,DewpointF,PressureIn,WindDirection,WindDirectionDegrees,WindSpeedMPH,WindSpeedGustMPH,Humidity,HourlyPrecipIn,Conditions,Clouds,dailyrainin,SoftwareType,DateUTC
2013-11-17 00:03:00,40.6,30.5,29.32,West,268,8.0,8.0,67,0.00,,,0.00,Wunderground v.1.15,2013-11-17 06:03:00,
2013-11-17 00:08:00,40.7,30.2,29.31,West,270,7.0,8.0,66,0.00,,,0.00,Wunderground v.1.15,2013-11-17 06:08:00,
2013-11-17 00:14:00,40.6,30.1,29.32,West,272,2.0,6.0,66,0.00,,,0.00,Wunderground v.1.15,2013-11-17 06:14:00,
2013-11-17 00:20:00,39.6,29.5,29.33,West,271,4.0,6.0,67,0.00,,,0.00,Wunderground v.1.15,2013-11-17 06:20:00,
2013-11-17 00:26:00,38.3,29.4,29.33,West,271,4.0,4.0,70,0.00,,,0.00,Wunderground v.1.15,2013-11-17 06:26:00,
2013-11-17 00:31:00,37.8,29.2,29.34,West,271,3.0,3.0,71,0.00,,,0.00,Wunderground v.1.15,2013-11-17 06:31:00,
2013-11-17 00:37:00,37.6,29.0,29.34,West,271,0.0,3.0,71,0.00,,,0.00,Wunderground v.1.15,2013-11-17 06:37:00,
2013-11-17 00:43:00,36.8,28.6,29.34,West,271,3.0,3.0,72,0.00,,,0.00,Wunderground v.1.15,2013-11-17 06:43:00,
2013-11-17 00:49:00,36.5,28.7,29.34,West,271,4.0,4.0,73,0.00,,,0.00,Wunderground v.1.15,2013-11-17 06:49:00,
2013-11-17 00:55:00,36.5,28.7,29.34,West,271,0.0,3.0,73,0.00,,,0.00,Wunderground v.1.15,2013-11-17 06:55:00,
2013-11-17 01:01:00,35.3,27.5,29.34,West,271,1.0,1.0,73,0.00,,,0.00,Wunderground v.1.15,2013-11-17 07:01:00,
2013-11-17 01:06:00,34.9,27.8,29.34,West,271,0.0,1.0,75,0.00,,,0.00,Wunderground v.1.15,2013-11-17 07:06:00,
2013-11-17 01:12:00,34.4,27.3,29.34,West,271,0.0,0.0,75,0.00,,,0.00,Wunderground v.1.15,2013-11-17 07:12:00,
2013-11-17 01:17:00,34.3,27.5,29.33,West,271,0.0,2.0,76,0.00,,,0.00,Wunderground v.1.15,2013-11-17 07:17:00,
2013-11-17 01:23:00,33.7,26.9,29.33,West,271,0.0,0.0,76,0.00,,,0.00,Wunderground v.1.15,2013-11-17 07:23:00,
2013-11-17 01:29:00,33.0,26.6,29.33,West,271,0.0,0.0,77,0.00,,,0.00,Wunderground v.1.15,2013-11-17 07:29:00,
2013-11-17 01:35:00,32.5,26.4,29.33,West,271,0.0,0.0,78,0.00,,,0.00,Wunderground v.1.15,2013-11-17 07:35:00,
2013-11-17 01:41:00,32.1,26.3,29.33,West,271,0.0,0.0,79,0.00,,,0.00,Wunderground v.1.15,2013-11-17 07:41:00,
2013-11-17 01:46:00,32.2,26.7,29.33,West,271,0.0,0.0,80,0.00,,,0.00,Wunderground v.1.15,2013-11-17 07:46:00,
2013-11-17 01:52:00,32.3,26.8,29.34,West,271,0.0,0.0,80,0.00,,,0.00,Wunderground v.1.15,2013-11-17 07:52:00,
2013-11-17 01:58:00,32.3,27.1,29.33,West,271,0.0,0.0,81,0.00,,,0.00,Wunderground v.1.15,2013-11-17 07:58:00,
2013-11-17 02:03:00,32.5,27.6,29.33,West,271,0.0,0.0,82,0.00,,,0.00,Wunderground v.1.15,2013-11-17 08:03:00,
2013-11-17 02:08:00,32.9,28.0,29.33,West,271,0.0,0.0,82,0.00,,,0.00,Wunderground v.1.15,2013-11-17 08:08:00,
2013-11-17 02:13:00,33.3,28.4,29.33,West,271,0.0,0.0,82,0.00,,,0.00,Wunderground v.1.15,2013-11-17 08:13:00,
2013-11-17 02:18:00,33.4,28.2,29.33,West,271,0.0,0.0,81,0.00,,,0.00,Wunderground v.1.15,2013-11-17 08:18:00,
2013-11-17 02:23:00,33.3,28.1,29.33,West,271,0.0,0.0,81,0.00,,,0.00,Wunderground v.1.15,2013-11-17 08:23:00,
2013-11-17 02:28:00,33.2,28.3,29.33,West,271,0.0,0.0,82,0.00,,,0.00,Wunderground v.1.15,2013-11-17 08:28:00,
2013-11-17 02:33:00,33.4,28.5,29.33,West,271,0.0,0.0,82,0.00,,,0.00,Wunderground v.1.15,2013-11-17 08:33:00,
2013-11-17 02:38:00,33.5,28.6,29.33,West,271,0.0,0.0,82,0.00,,,0.00,Wunderground v.1.15,2013-11-17 08:38:00,
2013-11-17 02:43:00,33.7,28.8,29.33,West,271,0.0,0.0,82,0.00,,,0.00,Wunderground v.1.15,2013-11-17 08:43:00,
2013-11-17 02:48:00,33.7,28.8,29.33,West,271,0.0,0.0,82,0.00,,,0.00,Wunderground v.1.15,2013-11-17 08:48:00,
2013-11-17 02:53:00,33.8,29.2,29.34,West,271,0.0,0.0,83,0.00,,,0.00,Wunderground v.1.15,2013-11-17 08:53:00,
2013-11-17 02:58:00,33.8,30.6,29.34,West,271,0.0,0.0,88,0.00,,,0.00,Wunderground v.1.15,2013-11-17 08:58:00,
2013-11-17 03:03:00,33.8,30.9,29.33,West,271,0.0,0.0,89,0.00,,,0.00,Wunderground v.1.15,2013-11-17 09:03:00,
2013-11-17 03:08:00,34.0,29.4,29.33,West,271,0.0,0.0,83,0.00,,,0.00,Wunderground v.1.15,2013-11-17 09:08:00,
2013-11-17 03:13:00,34.4,30.1,29.33,West,271,0.0,0.0,84,0.00,,,0.00,Wunderground v.1.15,2013-11-17 09:13:00,
2013-11-17 03:18:00,35.1,30.8,29.33,West,271,0.0,0.0,84,0.00,,,0.00,Wunderground v.1.15,2013-11-17 09:18:00,
2013-11-17 03:23:00,35.5,30.8,29.33,West,271,0.0,0.0,83,0.00,,,0.00,Wunderground v.1.15,2013-11-17 09:23:00,
2013-11-17 03:28:00,35.8,31.1,29.33,West,271,0.0,0.0,83,0.00,,,0.00,Wunderground v.1.15,2013-11-17 09:28:00,
2013-11-17 03:33:00,36.1,31.4,29.33,West,271,0.0,0.0,83,0.00,,,0.00,Wunderground v.1.15,2013-11-17 09:33:00,
2013-11-17 03:38:00,36.4,31.7,29.33,West,271,3.0,4.0,83,0.00,,,0.00,Wunderground v.1.15,2013-11-17 09:38:00,
2013-11-17 03:43:00,37.1,32.7,29.33,West,271,4.0,6.0,84,0.00,,,0.00,Wunderground v.1.15,2013-11-17 09:43:00,
2013-11-17 03:48:00,37.8,33.4,29.33,West,271,1.0,6.0,84,0.00,,,0.00,Wunderground v.1.15,2013-11-17 09:48:00,
2013-11-17 03:53:00,38.0,33.3,29.33,West,271,3.0,5.0,83,0.00,,,0.00,Wunderground v.1.15,2013-11-17 09:53:00,
2013-11-17 03:58:00,38.4,34.0,29.33,West,272,6.0,6.0,84,0.00,,,0.00,Wunderground v.1.15,2013-11-17 09:58:00,
2013-11-17 04:03:00,38.7,34.3,29.33,West,272,2.0,6.0,84,0.00,,,0.00,Wunderground v.1.15,2013-11-17 10:03:00,
2013-11-17 04:08:00,38.6,33.9,29.34,West,272,2.0,6.0,83,0.00,,,0.00,Wunderground v.1.15,2013-11-17 10:08:00,
2013-11-17 04:13:00,38.6,33.9,29.33,West,272,4.0,5.0,83,0.00,,,0.00,Wunderground v.1.15,2013-11-17 10:13:00,
2013-11-17 04:19:00,38.4,33.7,29.33,West,272,6.0,6.0,83,0.00,,,0.00,Wunderground v.1.15,2013-11-17 10:19:00,
2013-11-17 04:24:00,38.3,33.6,29.33,West,276,4.0,7.0,83,0.00,,,0.00,Wunderground v.1.15,2013-11-17 10:24:00,
2013-11-17 04:29:00,38.3,33.9,29.32,West,277,4.0,8.0,84,0.00,,,0.00,Wunderground v.1.15,2013-11-17 10:29:00,
2013-11-17 04:34:00,38.3,33.9,29.32,West,278,1.0,5.0,84,0.00,,,0.00,Wunderground v.1.15,2013-11-17 10:34:00,
2013-11-17 04:39:00,38.2,33.8,29.32,West,277,0.0,5.0,84,0.00,,,0.00,Wunderground v.1.15,2013-11-17 10:39:00,
2013-11-17 04:44:00,38.3,33.9,29.33,West,277,0.0,1.0,84,0.00,,,0.00,Wunderground v.1.15,2013-11-17 10:44:00,
2013-11-17 04:49:00,38.5,34.1,29.34,West,277,0.0,5.0,84,0.00,,,0.00,Wunderground v.1.15,2013-11-17 10:49:00,
2013-11-17 04:54:00,38.6,34.2,29.34,West,277,0.0,1.0,84,0.00,,,0.00,Wunderground v.1.15,2013-11-17 10:54:00,
2013-11-17 04:59:00,38.6,34.2,29.34,West,277,0.0,1.0,84,0.00,,,0.00,Wunderground v.1.15,2013-11-17 10:59:00,
2013-11-17 05:04:00,38.6,34.2,29.34,West,277,5.0,5.0,84,0.00,,,0.00,Wunderground v.1.15,2013-11-17 11:04:00,
2013-11-17 05:09:00,38.7,34.3,29.34,West,277,4.0,5.0,84,0.00,,,0.00,Wunderground v.1.15,2013-11-17 11:09:00,
2013-11-17 05:14:00,38.8,34.4,29.34,West,278,2.0,4.0,84,0.00,,,0.00,Wunderground v.1.15,2013-11-17 11:14:00,
2013-11-17 05:19:00,38.8,34.7,29.34,West,277,3.0,5.0,85,0.00,,,0.00,Wunderground v.1.15,2013-11-17 11:19:00,
2013-11-17 05:24:00,38.8,34.7,29.34,West,277,3.0,5.0,85,0.00,,,0.00,Wunderground v.1.15,2013-11-17 11:24:00,
2013-11-17 05:29:00,38.9,35.1,29.34,West,278,5.0,7.0,86,0.00,,,0.00,Wunderground v.1.15,2013-11-17 11:29:00,
2013-11-17 05:34:00,38.9,35.1,29.34,West,278,5.0,7.0,86,0.00,,,0.00,Wunderground v.1.15,2013-11-17 11:34:00,
2013-11-17 05:39:00,38.9,35.1,29.33,West,277,0.0,7.0,86,0.00,,,0.00,Wunderground v.1.15,2013-11-17 11:39:00,
2013-11-17 05:44:00,39.0,35.5,29.34,West,277,2.0,6.0,87,0.00,,,0.01,Wunderground v.1.15,2013-11-17 11:44:00,
2013-11-17 05:49:00,39.0,35.5,29.34,West,278,0.0,6.0,87,0.00,,,0.01,Wunderground v.1.15,2013-11-17 11:49:00,
2013-11-17 05:54:00,39.0,35.5,29.36,West,277,5.0,6.0,87,0.00,,,0.01,Wunderground v.1.15,2013-11-17 11:54:00,
2013-11-17 05:59:00,39.0,35.5,29.35,West,278,0.0,9.0,87,0.00,,,0.01,Wunderground v.1.15,2013-11-17 11:59:00,
2013-11-17 06:04:00,39.2,35.7,29.36,West,280,5.0,7.0,87,0.00,,,0.01,Wunderground v.1.15,2013-11-17 12:04:00,
2013-11-17 06:09:00,39.3,36.0,29.36,West,280,5.0,7.0,88,0.00,,,0.01,Wunderground v.1.15,2013-11-17 12:09:00,
2013-11-17 06:14:00,39.1,35.8,29.36,West,280,0.0,4.0,88,0.00,,,0.01,Wunderground v.1.15,2013-11-17 12:14:00,
2013-11-17 06:19:00,38.9,35.6,29.36,West,280,0.0,4.0,88,0.00,,,0.01,Wunderground v.1.15,2013-11-17 12:19:00,
2013-11-17 06:24:00,38.7,35.5,29.37,West,280,5.0,6.0,88,0.00,,,0.01,Wunderground v.1.15,2013-11-17 12:24:00,
2013-11-17 06:30:00,38.6,35.4,29.37,West,280,5.0,6.0,88,0.00,,,0.01,Wunderground v.1.15,2013-11-17 12:30:00,
2013-11-17 06:35:00,38.6,35.4,29.36,West,280,5.0,5.0,88,0.00,,,0.01,Wunderground v.1.15,2013-11-17 12:35:00,
2013-11-17 06:40:00,38.5,35.3,29.36,West,280,0.0,6.0,88,0.00,,,0.01,Wunderground v.1.15,2013-11-17 12:40:00,
2013-11-17 06:45:00,38.4,35.2,29.35,West,280,0.0,3.0,88,0.00,,,0.01,Wunderground v.1.15,2013-11-17 12:45:00,
2013-11-17 06:50:00,38.3,35.1,29.37,West,280,5.0,5.0,88,0.00,,,0.01,Wunderground v.1.15,2013-11-17 12:50:00,
2013-11-17 06:55:00,38.2,35.0,29.37,West,280,0.0,5.0,88,0.00,,,0.01,Wunderground v.1.15,2013-11-17 12:55:00,
2013-11-17 07:00:00,38.1,35.1,29.37,West,280,0.0,5.0,89,0.00,,,0.01,Wunderground v.1.15,2013-11-17 13:00:00,
2013-11-17 07:05:00,38.0,35.0,29.37,West,280,0.0,1.0,89,0.00,,,0.01,Wunderground v.1.15,2013-11-17 13:05:00,
2013-11-17 07:10:00,38.0,35.0,29.36,West,280,6.0,8.0,89,0.00,,,0.01,Wunderground v.1.15,2013-11-17 13:10:00,
2013-11-17 07:15:00,38.1,35.1,29.37,West,280,0.0,6.0,89,0.00,,,0.01,Wunderground v.1.15,2013-11-17 13:15:00,
2013-11-17 07:20:00,38.0,35.0,29.37,West,280,0.0,6.0,89,0.00,,,0.01,Wunderground v.1.15,2013-11-17 13:20:00,
2013-11-17 07:25:00,37.9,34.9,29.37,West,280,4.0,4.0,89,0.00,,,0.01,Wunderground v.1.15,2013-11-17 13:25:00,
2013-11-17 07:30:00,37.9,34.9,29.38,West,280,0.0,5.0,89,0.00,,,0.01,Wunderground v.1.15,2013-11-17 13:30:00,
2013-11-17 07:35:00,38.0,35.0,29.38,West,280,0.0,1.0,89,0.00,,,0.01,Wunderground v.1.15,2013-11-17 13:35:00,
2013-11-17 07:40:00,38.0,35.0,29.38,West,280,0.0,1.0,89,0.00,,,0.01,Wunderground v.1.15,2013-11-17 13:40:00,
2013-11-17 07:45:00,38.0,35.0,29.39,West,280,0.0,0.0,89,0.00,,,0.01,Wunderground v.1.15,2013-11-17 13:45:00,
2013-11-17 07:50:00,38.0,35.3,29.39,West,280,0.0,0.0,90,0.00,,,0.01,Wunderground v.1.15,2013-11-17 13:50:00,
2013-11-17 07:55:00,38.1,35.4,29.39,West,280,0.0,4.0,90,0.00,,,0.01,Wunderground v.1.15,2013-11-17 13:55:00,
2013-11-17 08:00:00,38.1,35.4,29.40,West,280,0.0,1.0,90,0.00,,,0.01,Wunderground v.1.15,2013-11-17 14:00:00,
2013-11-17 08:05:00,38.1,35.4,29.40,West,280,0.0,1.0,90,0.00,,,0.01,Wunderground v.1.15,2013-11-17 14:05:00,
2013-11-17 08:10:00,38.1,35.4,29.41,West,280,0.0,1.0,90,0.00,,,0.01,Wunderground v.1.15,2013-11-17 14:10:00,
2013-11-17 08:15:00,38.0,35.3,29.41,West,280,0.0,1.0,90,0.00,,,0.01,Wunderground v.1.15,2013-11-17 14:15:00,
2013-11-17 08:20:00,37.9,35.2,29.41,West,280,0.0,0.0,90,0.00,,,0.01,Wunderground v.1.15,2013-11-17 14:20:00,
2013-11-17 08:25:00,37.9,35.2,29.41,West,280,0.0,0.0,90,0.00,,,0.01,Wunderground v.1.15,2013-11-17 14:25:00,
2013-11-17 08:30:00,37.8,35.1,29.42,West,280,0.0,0.0,90,0.00,,,0.01,Wunderground v.1.15,2013-11-17 14:30:00,
2013-11-17 08:36:00,37.8,35.1,29.42,West,280,0.0,0.0,90,0.00,,,0.01,Wunderground v.1.15,2013-11-17 14:36:00,
2013-11-17 08:41:00,37.8,35.1,29.42,West,280,0.0,0.0,90,0.00,,,0.01,Wunderground v.1.15,2013-11-17 14:41:00,
2013-11-17 08:46:00,37.9,35.2,29.42,West,280,0.0,0.0,90,0.00,,,0.01,Wunderground v.1.15,2013-11-17 14:46:00,
2013-11-17 08:51:00,37.9,35.2,29.42,West,280,0.0,0.0,90,0.00,,,0.01,Wunderground v.1.15,2013-11-17 14:51:00,
2013-11-17 08:57:00,38.0,35.3,29.42,West,280,0.0,0.0,90,0.00,,,0.01,Wunderground v.1.15,2013-11-17 14:57:00,
2013-11-17 09:02:00,38.1,35.4,29.42,West,280,0.0,0.0,90,0.00,,,0.01,Wunderground v.1.15,2013-11-17 15:02:00,
2013-11-17 09:07:00,38.2,35.8,29.43,West,280,4.0,6.0,91,0.00,,,0.01,Wunderground v.1.15,2013-11-17 15:07:00,
2013-11-17 09:12:00,38.3,35.9,29.43,West,280,3.0,5.0,91,0.00,,,0.01,Wunderground v.1.15,2013-11-17 15:12:00,
2013-11-17 09:17:00,38.5,36.1,29.43,West,280,4.0,7.0,91,0.00,,,0.01,Wunderground v.1.15,2013-11-17 15:17:00,
2013-11-17 09:22:00,38.7,36.3,29.43,West,280,4.0,7.0,91,0.00,,,0.01,Wunderground v.1.15,2013-11-17 15:22:00,
2013-11-17 09:27:00,38.8,36.1,29.43,West,280,4.0,7.0,90,0.00,,,0.01,Wunderground v.1.15,2013-11-17 15:27:00,
2013-11-17 09:32:00,38.9,36.5,29.43,West,280,5.0,6.0,91,0.00,,,0.01,Wunderground v.1.15,2013-11-17 15:32:00,
2013-11-17 09:37:00,39.0,36.3,29.43,West,281,6.0,8.0,90,0.00,,,0.01,Wunderground v.1.15,2013-11-17 15:37:00,
2013-11-17 09:42:00,39.1,36.4,29.43,WNW,294,6.0,9.0,90,0.00,,,0.01,Wunderground v.1.15,2013-11-17 15:42:00,
2013-11-17 09:47:00,39.3,36.6,29.43,WNW,299,8.0,10.0,90,0.00,,,0.01,Wunderground v.1.15,2013-11-17 15:47:00,
2013-11-17 09:52:00,39.4,36.7,29.44,WNW,303,11.0,11.0,90,0.00,,,0.01,Wunderground v.1.15,2013-11-17 15:52:00,
2013-11-17 09:57:00,39.6,36.9,29.44,NW,304,6.0,11.0,90,0.00,,,0.01,Wunderground v.1.15,2013-11-17 15:57:00,
2013-11-17 10:02:00,39.8,36.8,29.44,NW,306,8.0,8.0,89,0.00,,,0.01,Wunderground v.1.15,2013-11-17 16:02:00,
2013-11-17 10:07:00,39.9,36.9,29.45,NW,308,7.0,11.0,89,0.00,,,0.01,Wunderground v.1.15,2013-11-17 16:07:00,
2013-11-17 10:12:00,40.1,36.8,29.45,NW,309,5.0,9.0,88,0.00,,,0.01,Wunderground v.1.15,2013-11-17 16:12:00,
2013-11-17 10:17:00,40.5,37.2,29.45,NW,309,8.0,11.0,88,0.00,,,0.01,Wunderground v.1.15,2013-11-17 16:17:00,
2013-11-17 10:22:00,40.9,37.3,29.46,NW,309,5.0,8.0,87,0.00,,,0.01,Wunderground v.1.15,2013-11-17 16:22:00,
2013-11-17 10:27:00,41.4,37.8,29.46,NW,306,13.0,13.0,87,0.00,,,0.01,Wunderground v.1.15,2013-11-17 16:27:00,
2013-11-17 10:32:00,41.8,37.9,29.46,NW,304,6.0,11.0,86,0.00,,,0.01,Wunderground v.1.15,2013-11-17 16:32:00,
2013-11-17 10:37:00,42.0,37.8,29.46,WNW,302,8.0,12.0,85,0.00,,,0.01,Wunderground v.1.15,2013-11-17 16:37:00,
2013-11-17 10:42:00,42.0,37.2,29.47,NW,313,9.0,10.0,83,0.00,,,0.01,Wunderground v.1.15,2013-11-17 16:42:00,
2013-11-17 10:47:00,42.4,37.3,29.47,NW,314,10.0,13.0,82,0.00,,,0.01,Wunderground v.1.15,2013-11-17 16:47:00,
2013-11-17 10:52:00,42.5,37.1,29.48,NW,307,10.0,15.0,81,0.00,,,0.01,Wunderground v.1.15,2013-11-17 16:52:00,
2013-11-17 10:57:00,43.0,37.6,29.48,NW,304,7.0,17.0,81,0.00,,,0.01,Wunderground v.1.15,2013-11-17 16:57:00,
2013-11-17 11:02:00,43.4,37.3,29.48,NW,311,11.0,14.0,79,0.00,,,0.01,Wunderground v.1.15,2013-11-17 17:02:00,
2013-11-17 11:07:00,43.4,37.3,29.48,WNW,302,14.0,15.0,79,0.00,,,0.01,Wunderground v.1.15,2013-11-17 17:07:00,
2013-11-17 11:12:00,43.5,36.8,29.48,NW,322,10.0,15.0,77,0.00,,,0.01,Wunderground v.1.15,2013-11-17 17:12:00,
2013-11-17 11:17:00,43.3,36.6,29.48,NW,311,10.0,15.0,77,0.00,,,0.01,Wunderground v.1.15,2013-11-17 17:17:00,
2013-11-17 11:22:00,43.5,36.8,29.48,NW,304,14.0,17.0,77,0.00,,,0.01,Wunderground v.1.15,2013-11-17 17:22:00,
2013-11-17 11:27:00,44.0,36.9,29.48,North,360,11.0,17.0,76,0.00,,,0.01,Wunderground v.1.15,2013-11-17 17:27:00,
2013-11-17 11:32:00,44.3,36.9,29.48,NW,306,10.0,16.0,75,0.00,,,0.01,Wunderground v.1.15,2013-11-17 17:32:00,
2013-11-17 11:37:00,44.5,36.7,29.48,NW,313,10.0,17.0,74,0.00,,,0.01,Wunderground v.1.15,2013-11-17 17:37:00,
2013-11-17 11:42:00,45.0,36.9,29.48,NW,307,9.0,18.0,73,0.00,,,0.01,Wunderground v.1.15,2013-11-17 17:42:00,
2013-11-17 11:47:00,45.0,36.9,29.48,WNW,303,9.0,18.0,73,0.00,,,0.01,Wunderground v.1.15,2013-11-17 17:47:00,
2013-11-17 11:52:00,44.9,36.4,29.48,WNW,301,15.0,15.0,72,0.00,,,0.01,Wunderground v.1.15,2013-11-17 17:52:00,
2013-11-17 11:57:00,45.0,36.5,29.48,WNW,288,12.0,18.0,72,0.00,,,0.01,Wunderground v.1.15,2013-11-17 17:57:00,
2013-11-17 12:02:00,44.7,36.2,29.48,NW,309,10.0,16.0,72,0.00,,,0.01,Wunderground v.1.15,2013-11-17 18:02:00,
2013-11-17 12:07:00,45.0,36.5,29.49,NW,311,9.0,16.0,72,0.00,,,0.01,Wunderground v.1.15,2013-11-17 18:07:00,
2013-11-17 12:12:00,45.5,36.6,29.49,NW,305,11.0,15.0,71,0.00,,,0.01,Wunderground v.1.15,2013-11-17 18:12:00,
2013-11-17 12:17:00,45.7,36.5,29.49,NW,311,13.0,15.0,70,0.00,,,0.01,Wunderground v.1.15,2013-11-17 18:17:00,
2013-11-17 12:22:00,45.7,35.7,29.49,NW,319,12.0,18.0,68,0.00,,,0.01,Wunderground v.1.15,2013-11-17 18:22:00,
2013-11-17 12:27:00,46.4,36.4,29.49,NW,307,9.0,18.0,68,0.00,,,0.01,Wunderground v.1.15,2013-11-17 18:27:00,
2013-11-17 12:32:00,47.0,36.6,29.50,WNW,295,15.0,19.0,67,0.00,,,0.01,Wunderground v.1.15,2013-11-17 18:32:00,
2013-11-17 12:37:00,46.8,36.4,29.50,NW,318,13.0,19.0,67,0.00,,,0.01,Wunderground v.1.15,2013-11-17 18:37:00,
2013-11-17 12:42:00,47.4,37.0,29.50,NW,307,13.0,18.0,67,0.00,,,0.01,Wunderground v.1.15,2013-11-17 18:42:00,
2013-11-17 12:47:00,47.3,36.1,29.50,WNW,300,11.0,18.0,65,0.00,,,0.01,Wunderground v.1.15,2013-11-17 18:47:00,
2013-11-17 12:52:00,47.3,36.5,29.50,NW,312,12.0,20.0,66,0.00,,,0.01,Wunderground v.1.15,2013-11-17 18:52:00,
2013-11-17 12:57:00,47.3,36.5,29.51,WNW,302,10.0,20.0,66,0.00,,,0.01,Wunderground v.1.15,2013-11-17 18:57:00,
2013-11-17 13:03:00,47.3,36.5,29.51,WNW,293,9.0,17.0,66,0.00,,,0.01,Wunderground v.1.15,2013-11-17 19:03:00,
2013-11-17 13:08:00,47.8,37.0,29.51,NW,304,13.0,18.0,66,0.00,,,0.01,Wunderground v.1.15,2013-11-17 19:08:00,
2013-11-17 13:13:00,47.8,37.0,29.51,WNW,297,16.0,18.0,66,0.00,,,0.01,Wunderground v.1.15,2013-11-17 19:13:00,
2013-11-17 13:18:00,48.2,37.0,29.52,NW,306,16.0,19.0,65,0.00,,,0.01,Wunderground v.1.15,2013-11-17 19:18:00,
2013-11-17 13:23:00,47.9,35.9,29.52,WNW,299,15.0,18.0,63,0.00,,,0.01,Wunderground v.1.15,2013-11-17 19:23:00,
2013-11-17 13:28:00,47.8,35.8,29.52,WNW,294,17.0,19.0,63,0.00,,,0.01,Wunderground v.1.15,2013-11-17 19:28:00,
2013-11-17 13:33:00,47.6,35.6,29.53,WNW,293,18.0,21.0,63,0.00,,,0.01,Wunderground v.1.15,2013-11-17 19:33:00,
2013-11-17 13:38:00,47.4,36.2,29.53,WNW,303,14.0,21.0,65,0.00,,,0.01,Wunderground v.1.15,2013-11-17 19:38:00,
2013-11-17 13:43:00,47.6,36.4,29.53,WNW,287,13.0,18.0,65,0.00,,,0.01,Wunderground v.1.15,2013-11-17 19:43:00,
2013-11-17 13:48:00,47.1,35.9,29.54,WNW,302,10.0,24.0,65,0.00,,,0.01,Wunderground v.1.15,2013-11-17 19:48:00,
2013-11-17 13:53:00,47.9,36.7,29.54,West,280,16.0,22.0,65,0.00,,,0.01,Wunderground v.1.15,2013-11-17 19:53:00,
2013-11-17 13:58:00,47.5,36.3,29.54,WNW,293,21.0,22.0,65,0.00,,,0.01,Wunderground v.1.15,2013-11-17 19:58:00,
2013-11-17 14:03:00,47.0,35.8,29.55,WNW,298,22.0,23.0,65,0.00,,,0.01,Wunderground v.1.15,2013-11-17 20:03:00,
2013-11-17 14:08:00,47.3,36.1,29.55,WNW,301,20.0,23.0,65,0.00,,,0.01,Wunderground v.1.15,2013-11-17 20:08:00,
2013-11-17 14:13:00,47.0,35.4,29.56,NW,304,14.0,24.0,64,0.00,,,0.01,Wunderground v.1.15,2013-11-17 20:13:00,
2013-11-17 14:18:00,46.8,35.6,29.56,WNW,295,20.0,25.0,65,0.00,,,0.01,Wunderground v.1.15,2013-11-17 20:18:00,
2013-11-17 14:23:00,46.7,35.6,29.56,WNW,291,15.0,24.0,65,0.00,,,0.01,Wunderground v.1.15,2013-11-17 20:23:00,
2013-11-17 14:28:00,46.3,35.6,29.57,NW,304,14.0,24.0,66,0.00,,,0.01,Wunderground v.1.15,2013-11-17 20:28:00,
2013-11-17 14:33:00,46.7,35.9,29.57,WNW,299,17.0,21.0,66,0.00,,,0.01,Wunderground v.1.15,2013-11-17 20:33:00,
2013-11-17 14:38:00,47.2,36.0,29.58,WNW,300,19.0,24.0,65,0.00,,,0.01,Wunderground v.1.15,2013-11-17 20:38:00,
2013-11-17 14:43:00,46.8,36.0,29.58,NW,307,21.0,28.0,66,0.00,,,0.01,Wunderground v.1.15,2013-11-17 20:43:00,
2013-11-17 14:48:00,46.9,36.1,29.58,NW,307,23.0,28.0,66,0.00,,,0.01,Wunderground v.1.15,2013-11-17 20:48:00,
2013-11-17 14:53:00,47.6,36.8,29.58,NW,323,17.0,20.0,66,0.00,,,0.01,Wunderground v.1.15,2013-11-17 20:53:00,
2013-11-17 14:58:00,48.0,36.4,29.59,NW,312,14.0,23.0,64,0.00,,,0.01,Wunderground v.1.15,2013-11-17 20:58:00,
2013-11-17 15:04:00,47.9,36.3,29.58,WNW,303,12.0,20.0,64,0.00,,,0.01,Wunderground v.1.15,2013-11-17 21:04:00,
2013-11-17 15:09:00,47.7,36.5,29.59,West,281,18.0,22.0,65,0.00,,,0.01,Wunderground v.1.15,2013-11-17 21:09:00,
2013-11-17 15:14:00,47.6,36.4,29.59,WNW,288,19.0,19.0,65,0.00,,,0.01,Wunderground v.1.15,2013-11-17 21:14:00,
2013-11-17 15:19:00,47.7,35.7,29.60,NW,321,19.0,20.0,63,0.00,,,0.01,Wunderground v.1.15,2013-11-17 21:19:00,
2013-11-17 15:24:00,47.9,34.3,29.60,WNW,298,25.0,25.0,59,0.00,,,0.01,Wunderground v.1.15,2013-11-17 21:24:00,
2013-11-17 15:29:00,47.9,34.7,29.61,WNW,296,15.0,25.0,60,0.00,,,0.01,Wunderground v.1.15,2013-11-17 21:29:00,
2013-11-17 15:34:00,47.9,34.7,29.61,WNW,298,14.0,22.0,60,0.00,,,0.01,Wunderground v.1.15,2013-11-17 21:34:00,
2013-11-17 15:39:00,47.7,35.3,29.62,WNW,286,14.0,22.0,62,0.00,,,0.01,Wunderground v.1.15,2013-11-17 21:39:00,
2013-11-17 15:44:00,47.0,34.6,29.62,WNW,296,12.0,25.0,62,0.00,,,0.01,Wunderground v.1.15,2013-11-17 21:44:00,
2013-11-17 15:49:00,46.6,34.7,29.63,WNW,290,22.0,25.0,63,0.00,,,0.01,Wunderground v.1.15,2013-11-17 21:49:00,
2013-11-17 15:54:00,46.8,34.9,29.63,WNW,294,11.0,20.0,63,0.00,,,0.01,Wunderground v.1.15,2013-11-17 21:54:00,
2013-11-17 15:59:00,46.6,34.7,29.64,WNW,284,18.0,24.0,63,0.00,,,0.01,Wunderground v.1.15,2013-11-17 21:59:00,
2013-11-17 16:04:00,46.5,34.6,29.65,WNW,290,18.0,24.0,63,0.00,,,0.01,Wunderground v.1.15,2013-11-17 22:04:00,
2013-11-17 16:09:00,46.3,34.8,29.65,WNW,284,15.0,24.0,64,0.00,,,0.01,Wunderground v.1.15,2013-11-17 22:09:00,
2013-11-17 16:14:00,45.8,34.7,29.65,WNW,284,10.0,18.0,65,0.00,,,0.01,Wunderground v.1.15,2013-11-17 22:14:00,
2013-11-17 16:19:00,45.3,34.2,29.66,WNW,300,17.0,21.0,65,0.00,,,0.01,Wunderground v.1.15,2013-11-17 22:19:00,
2013-11-17 16:24:00,45.5,34.4,29.66,WNW,298,18.0,23.0,65,0.00,,,0.01,Wunderground v.1.15,2013-11-17 22:24:00,
2013-11-17 16:29:00,45.7,34.6,29.67,WNW,295,11.0,23.0,65,0.00,,,0.01,Wunderground v.1.15,2013-11-17 22:29:00,
2013-11-17 16:34:00,45.8,34.7,29.67,WNW,297,16.0,26.0,65,0.00,,,0.01,Wunderground v.1.15,2013-11-17 22:34:00,
2013-11-17 16:39:00,45.8,34.7,29.68,WNW,291,19.0,26.0,65,0.00,,,0.01,Wunderground v.1.15,2013-11-17 22:39:00,
2013-11-17 16:44:00,45.6,34.9,29.68,WNW,290,16.0,23.0,66,0.00,,,0.01,Wunderground v.1.15,2013-11-17 22:44:00,
2013-11-17 16:49:00,45.5,34.8,29.68,WNW,300,10.0,24.0,66,0.00,,,0.01,Wunderground v.1.15,2013-11-17 22:49:00,
2013-11-17 16:55:00,45.0,34.7,29.69,WNW,296,11.0,22.0,67,0.00,,,0.01,Wunderground v.1.15,2013-11-17 22:55:00,
2013-11-17 17:00:00,44.6,34.7,29.69,WNW,299,14.0,22.0,68,0.00,,,0.01,Wunderground v.1.15,2013-11-17 23:00:00,
2013-11-17 17:05:00,44.0,34.1,29.69,WNW,302,11.0,16.0,68,0.00,,,0.01,Wunderground v.1.15,2013-11-17 23:05:00,
2013-11-17 17:10:00,43.4,33.9,29.70,WNW,299,7.0,16.0,69,0.00,,,0.01,Wunderground v.1.15,2013-11-17 23:10:00,
2013-11-17 17:15:00,42.8,33.7,29.70,WNW,291,12.0,15.0,70,0.00,,,0.01,Wunderground v.1.15,2013-11-17 23:15:00,
2013-11-17 17:20:00,42.9,33.8,29.71,WNW,285,12.0,17.0,70,0.00,,,0.01,Wunderground v.1.15,2013-11-17 23:20:00,
2013-11-17 17:25:00,42.7,33.6,29.72,WNW,284,12.0,15.0,70,0.00,,,0.01,Wunderground v.1.15,2013-11-17 23:25:00,
2013-11-17 17:30:00,42.4,33.3,29.73,WNW,294,12.0,15.0,70,0.00,,,0.01,Wunderground v.1.15,2013-11-17 23:30:00,
2013-11-17 17:35:00,42.3,33.6,29.73,WNW,289,8.0,15.0,71,0.00,,,0.01,Wunderground v.1.15,2013-11-17 23:35:00,
2013-11-17 17:40:00,41.9,33.2,29.73,WNW,297,7.0,15.0,71,0.00,,,0.01,Wunderground v.1.15,2013-11-17 23:40:00,
2013-11-17 17:45:00,41.3,33.3,29.74,NW,306,9.0,11.0,73,0.00,,,0.01,Wunderground v.1.15,2013-11-17 23:45:00,
2013-11-17 17:50:00,41.2,33.5,29.75,WNW,295,11.0,16.0,74,0.00,,,0.01,Wunderground v.1.15,2013-11-17 23:50:00,
2013-11-17 17:55:00,41.7,33.3,29.75,WNW,294,16.0,23.0,72,0.00,,,0.01,Wunderground v.1.15,2013-11-17 23:55:00,
2013-11-17 18:00:00,41.9,33.2,29.75,WNW,295,11.0,23.0,71,0.00,,,0.01,Wunderground v.1.15,2013-11-18 00:00:00,
2013-11-17 18:05:00,41.8,33.1,29.75,WNW,288,11.0,20.0,71,0.00,,,0.01,Wunderground v.1.15,2013-11-18 00:05:00,
2013-11-17 18:10:00,41.6,32.9,29.76,WNW,288,17.0,21.0,71,0.00,,,0.01,Wunderground v.1.15,2013-11-18 00:10:00,
2013-11-17 18:15:00,41.6,32.5,29.76,WNW,298,19.0,23.0,70,0.00,,,0.01,Wunderground v.1.15,2013-11-18 00:15:00,
2013-11-17 18:20:00,41.1,32.1,29.76,WNW,298,15.0,23.0,70,0.00,,,0.01,Wunderground v.1.15,2013-11-18 00:20:00,
2013-11-17 18:25:00,40.7,32.0,29.77,WNW,296,15.0,19.0,71,0.00,,,0.01,Wunderground v.1.15,2013-11-18 00:25:00,
2013-11-17 18:30:00,40.5,32.2,29.78,WNW,294,13.0,19.0,72,0.00,,,0.01,Wunderground v.1.15,2013-11-18 00:30:00,
2013-11-17 18:35:00,40.3,32.0,29.79,NW,306,19.0,19.0,72,0.00,,,0.01,Wunderground v.1.15,2013-11-18 00:35:00,
2013-11-17 18:40:00,40.0,32.0,29.79,WNW,295,10.0,20.0,73,0.00,,,0.01,Wunderground v.1.15,2013-11-18 00:40:00,
2013-11-17 18:45:00,39.6,32.0,29.79,West,281,10.0,17.0,74,0.00,,,0.01,Wunderground v.1.15,2013-11-18 00:45:00,
2013-11-17 18:50:00,39.3,31.7,29.79,WNW,299,15.0,17.0,74,0.00,,,0.01,Wunderground v.1.15,2013-11-18 00:50:00,
2013-11-17 18:55:00,39.3,32.0,29.79,WNW,294,11.0,16.0,75,0.00,,,0.01,Wunderground v.1.15,2013-11-18 00:55:00,
2013-11-17 19:00:00,38.8,31.6,29.79,WNW,296,7.0,16.0,75,0.00,,,0.01,Wunderground v.1.15,2013-11-18 01:00:00,
2013-11-17 19:05:00,38.2,31.3,29.79,WNW,292,10.0,10.0,76,0.00,,,0.01,Wunderground v.1.15,2013-11-18 01:05:00,
2013-11-17 19:10:00,37.9,31.3,29.80,WNW,302,8.0,13.0,77,0.00,,,0.01,Wunderground v.1.15,2013-11-18 01:10:00,
2013-11-17 19:15:00,37.7,31.1,29.80,WNW,292,8.0,10.0,77,0.00,,,0.01,Wunderground v.1.15,2013-11-18 01:15:00,
2013-11-17 19:20:00,37.9,31.7,29.80,WNW,291,6.0,8.0,78,0.00,,,0.01,Wunderground v.1.15,2013-11-18 01:20:00,
2013-11-17 19:25:00,37.7,31.5,29.80,WNW,301,9.0,12.0,78,0.00,,,0.01,Wunderground v.1.15,2013-11-18 01:25:00,
2013-11-17 19:30:00,37.5,31.3,29.80,WNW,297,7.0,7.0,78,0.00,,,0.01,Wunderground v.1.15,2013-11-18 01:30:00,
2013-11-17 19:35:00,37.4,31.5,29.80,WNW,296,9.0,12.0,79,0.00,,,0.01,Wunderground v.1.15,2013-11-18 01:35:00,
2013-11-17 19:40:00,37.5,31.6,29.80,WNW,290,9.0,9.0,79,0.00,,,0.01,Wunderground v.1.15,2013-11-18 01:40:00,
2013-11-17 19:45:00,37.2,31.3,29.81,WNW,286,8.0,10.0,79,0.00,,,0.01,Wunderground v.1.15,2013-11-18 01:45:00,
2013-11-17 19:50:00,36.8,30.9,29.81,WNW,285,3.0,6.0,79,0.00,,,0.01,Wunderground v.1.15,2013-11-18 01:50:00,
2013-11-17 19:55:00,36.3,30.4,29.81,WNW,285,7.0,7.0,79,0.00,,,0.01,Wunderground v.1.15,2013-11-18 01:55:00,
2013-11-17 20:00:00,35.9,30.3,29.81,WNW,285,7.0,7.0,80,0.00,,,0.01,Wunderground v.1.15,2013-11-18 02:00:00,
2013-11-17 20:05:00,35.9,30.6,29.82,WNW,284,7.0,10.0,81,0.00,,,0.01,Wunderground v.1.15,2013-11-18 02:05:00,
2013-11-17 20:11:00,36.3,31.0,29.82,West,277,10.0,10.0,81,0.00,,,0.01,Wunderground v.1.15,2013-11-18 02:11:00,
2013-11-17 20:15:00,36.5,31.2,29.83,West,275,9.0,11.0,81,0.00,,,0.01,Wunderground v.1.15,2013-11-18 02:15:00,
2013-11-17 20:21:00,36.8,31.8,29.83,West,275,8.0,10.0,82,0.00,,,0.01,Wunderground v.1.15,2013-11-18 02:21:00,
2013-11-17 20:26:00,37.0,31.7,29.83,West,269,5.0,11.0,81,0.00,,,0.01,Wunderground v.1.15,2013-11-18 02:26:00,
2013-11-17 20:31:00,36.8,31.5,29.83,West,268,7.0,8.0,81,0.00,,,0.01,Wunderground v.1.15,2013-11-18 02:31:00,
2013-11-17 20:36:00,36.5,31.5,29.84,West,269,7.0,11.0,82,0.00,,,0.01,Wunderground v.1.15,2013-11-18 02:36:00,
2013-11-17 20:41:00,36.6,31.6,29.84,West,272,10.0,11.0,82,0.00,,,0.01,Wunderground v.1.15,2013-11-18 02:41:00,
2013-11-17 20:46:00,37.1,32.1,29.83,West,277,8.0,13.0,82,0.00,,,0.01,Wunderground v.1.15,2013-11-18 02:46:00,
2013-11-17 20:51:00,37.4,32.4,29.84,West,279,12.0,12.0,82,0.00,,,0.01,Wunderground v.1.15,2013-11-18 02:51:00,
2013-11-17 20:56:00,37.7,32.4,29.84,West,273,10.0,14.0,81,0.00,,,0.01,Wunderground v.1.15,2013-11-18 02:56:00,
2013-11-17 21:01:00,38.1,32.8,29.85,West,274,8.0,10.0,81,0.00,,,0.01,Wunderground v.1.15,2013-11-18 03:01:00,
2013-11-17 21:07:00,38.3,33.0,29.85,West,275,11.0,14.0,81,0.00,,,0.01,Wunderground v.1.15,2013-11-18 03:07:00,
2013-11-17 21:12:00,38.4,32.8,29.85,West,279,10.0,12.0,80,0.00,,,0.01,Wunderground v.1.15,2013-11-18 03:12:00,
2013-11-17 21:17:00,38.3,32.7,29.85,West,279,10.0,15.0,80,0.00,,,0.01,Wunderground v.1.15,2013-11-18 03:17:00,
2013-11-17 21:22:00,38.0,32.4,29.85,West,279,10.0,11.0,80,0.00,,,0.01,Wunderground v.1.15,2013-11-18 03:22:00,
2013-11-17 21:27:00,37.7,32.1,29.85,West,269,13.0,15.0,80,0.00,,,0.01,Wunderground v.1.15,2013-11-18 03:27:00,
2013-11-17 21:32:00,37.5,31.9,29.86,West,273,13.0,16.0,80,0.00,,,0.01,Wunderground v.1.15,2013-11-18 03:32:00,
2013-11-17 21:37:00,37.3,32.0,29.86,West,276,7.0,16.0,81,0.00,,,0.01,Wunderground v.1.15,2013-11-18 03:37:00,
2013-11-17 21:42:00,37.0,31.7,29.86,West,276,9.0,13.0,81,0.00,,,0.01,Wunderground v.1.15,2013-11-18 03:42:00,
2013-11-17 21:47:00,37.0,31.7,29.86,West,280,6.0,14.0,81,0.00,,,0.01,Wunderground v.1.15,2013-11-18 03:47:00,
2013-11-17 21:52:00,37.0,32.0,29.86,West,281,13.0,13.0,82,0.00,,,0.01,Wunderground v.1.15,2013-11-18 03:52:00,
2013-11-17 21:57:00,37.4,32.4,29.87,West,277,11.0,17.0,82,0.00,,,0.01,Wunderground v.1.15,2013-11-18 03:57:00,
2013-11-17 22:02:00,37.7,32.7,29.87,West,269,13.0,16.0,82,0.00,,,0.01,Wunderground v.1.15,2013-11-18 04:02:00,
2013-11-17 22:07:00,37.9,32.6,29.87,West,280,12.0,16.0,81,0.00,,,0.01,Wunderground v.1.15,2013-11-18 04:07:00,
2013-11-17 22:12:00,38.0,32.7,29.87,West,263,12.0,12.0,81,0.00,,,0.01,Wunderground v.1.15,2013-11-18 04:12:00,
2013-11-17 22:17:00,38.2,32.9,29.88,West,278,8.0,19.0,81,0.00,,,0.01,Wunderground v.1.15,2013-11-18 04:17:00,
2013-11-17 22:22:00,38.4,32.8,29.88,WNW,284,11.0,12.0,80,0.00,,,0.01,Wunderground v.1.15,2013-11-18 04:22:00,
2013-11-17 22:27:00,38.4,32.8,29.88,West,280,12.0,19.0,80,0.00,,,0.01,Wunderground v.1.15,2013-11-18 04:27:00,
2013-11-17 22:32:00,38.5,32.9,29.89,WNW,286,13.0,14.0,80,0.00,,,0.01,Wunderground v.1.15,2013-11-18 04:32:00,
2013-11-17 22:38:00,38.5,32.6,29.88,WNW,284,13.0,15.0,79,0.00,,,0.01,Wunderground v.1.15,2013-11-18 04:38:00,
2013-11-17 22:43:00,38.4,32.5,29.89,West,281,10.0,15.0,79,0.00,,,0.01,Wunderground v.1.15,2013-11-18 04:43:00,
2013-11-17 22:48:00,38.3,32.4,29.89,WNW,292,11.0,15.0,79,0.00,,,0.01,Wunderground v.1.15,2013-11-18 04:48:00,
2013-11-17 22:53:00,38.3,32.0,29.89,WNW,292,14.0,17.0,78,0.00,,,0.01,Wunderground v.1.15,2013-11-18 04:53:00,
2013-11-17 22:58:00,38.0,31.4,29.89,WNW,284,10.0,17.0,77,0.00,,,0.01,Wunderground v.1.15,2013-11-18 04:58:00,
2013-11-17 23:01:00,37.7,31.5,29.89,WNW,294,7.0,10.0,78,0.00,,,0.01,Wunderground v.1.15,2013-11-18 05:01:00,
2013-11-17 23:02:00,37.5,31.3,29.89,WNW,289,8.0,10.0,78,0.00,,,0.01,Wunderground v.1.15,2013-11-18 05:02:00,
2013-11-17 23:05:00,37.1,30.9,29.89,WNW,284,8.0,14.0,78,0.00,,,0.01,Wunderground v.1.15,2013-11-18 05:05:00,
2013-11-17 23:10:00,36.9,30.7,29.89,WNW,290,8.0,14.0,78,0.00,,,0.01,Wunderground v.1.15,2013-11-18 05:10:00,
2013-11-17 23:15:00,36.7,30.5,29.90,WNW,285,14.0,14.0,78,0.00,,,0.01,Wunderground v.1.15,2013-11-18 05:15:00,
2013-11-17 23:20:00,36.7,30.5,29.90,WNW,288,17.0,17.0,78,0.00,,,0.01,Wunderground v.1.15,2013-11-18 05:20:00,
2013-11-17 23:25:00,37.0,30.8,29.91,WNW,294,11.0,16.0,78,0.00,,,0.01,Wunderground v.1.15,2013-11-18 05:25:00,
2013-11-17 23:30:00,37.1,30.6,29.91,WNW,288,15.0,20.0,77,0.00,,,0.01,Wunderground v.1.15,2013-11-18 05:30:00,
2013-11-17 23:35:00,37.1,30.2,29.92,WNW,289,14.0,19.0,76,0.00,,,0.01,Wunderground v.1.15,2013-11-18 05:35:00,
2013-11-17 23:40:00,37.0,30.1,29.92,NW,313,12.0,19.0,76,0.00,,,0.01,Wunderground v.1.15,2013-11-18 05:40:00,
2013-11-17 23:45:00,36.8,29.6,29.92,WNW,295,15.0,19.0,75,0.00,,,0.01,Wunderground v.1.15,2013-11-18 05:45:00,
2013-11-17 23:50:00,36.8,29.3,29.92,NW,313,11.0,19.0,74,0.00,,,0.01,Wunderground v.1.15,2013-11-18 05:50:00,
2013-11-17 23:55:00,36.6,29.1,29.92,WNW,293,12.0,19.0,74,0.00,,,0.01,Wunderground v.1.15,2013-11-18 05:55:00,